User: anonymous   Login
Location: Berg
(47.2344°N, 9.5296°E)
Time: 20:15:46
(UTC+00:00)
Language:

Cosmos 44 - Orbit

View from above orbital plane
View from above orbital plane
View from above satellite
View from above satellite

Ground track
Ground track

The orbit data is extracted from the following two-line orbital elements,

1   876U 64053A   21210.18105895 -.00000113  00000-0  50029-5 0  9999
2   876  65.0589 187.7696 0154360 244.9372 113.5640 14.63803664 27921
Epoch (UTC): 29 July 2021 04:20:43
Eccentricity: 0.0154360
inclination: 65.0589°
perigee height: 572 km
apogee height: 790 km
right ascension of ascending node: 187.7696°
argument of perigee: 244.9372°
revolutions per day: 14.63803664
mean anomaly at epoch: 113.5640°
orbit number at epoch: 2792

The dashed part of the orbit path shows where the satellite is in the earth's shadow,  

DLR